Avondale, CO

8:30 AM MDT on August 31, 2015 (GMT -0600)
Pueblo Memorial | | Change Station
CLOSE
Current Station
Airport
Location: Pueblo,
Elevation: 4721 ft
Nearby Weather Stations

Elev 4721 ft 38.29 °N, 104.50 °W | Updated 37 minutes ago

Clear
Clear
70 °F
Feels Like 70 °F
N
0
Wind Variable Wind from North

Today
High -- | Low -- °F
--% Chance of Precip.
Yesterday
High -- | Low -- °F
Precip. -- in
6:26 AM 7:28 PM
Waning Gibbous, 95% visible
Pressure 29.83 in
Visibility 10.0 miles
Clouds Clear
Dew Point 53 °F
Humidity 55%
Rainfall 0.00 in
Snow Depth Not available.
UV 1 out of 12
Pollen 10.60 out of 12
Air Quality Not available.
Flu Activity Not available.
METAR KPUB 311353Z 00000KT 10SM CLR 21/12 A3004 RMK AO2 SLP102 T02110117
Pressure 29.83 in
Visibility 10.0 miles
Clouds Clear
Dew Point 53 °F
Humidity 55%
Rainfall 0.00 in
Snow Depth Not available.
UV 1 out of 12
Pollen 10.60 out of 12
Air Quality Not available.
Flu Activity Not available.
METAR KPUB 311353Z 00000KT 10SM CLR 21/12 A3004 RMK AO2 SLP102 T02110117

10-Day Weather Forecast

×

Almanac

Astronomy

Aug. 31, 2015 Rise Set
Actual Time
Civil Twilight
Nautical Twilight
Astronomical Twilight
Moon
Length of Visible Light
Length of Day
Tomorrow will be .
, % of the Moon is Illuminated

Today's Extremes

State Highs State Lows

Community

WunderPhotos

Upload Photos

1,851,248 photos uploaded!

WunderBlogs® & News

Nearby

Air Quality

  Air Quality AQ Index Pollutant
Not available.

Snow Depth

Station Depth Elevation

Earthquake Activity

City Distance Mag. Time & Date
Minimum magnitude displayed is 2.5.

Coastal Water Temperatures

Place Temperature

Stations

Nearby Weather Stations

Station Location Temp. Windchill Dew Point Humidity Wind Precip. Elev Updated Type